Location: *
(50.5492°N, 7.7469°E)
Time: 05:34:51
(UTC+00:00)

In-Cosmos 22 Rocket - Pass Details

Date: 21 October 2019
Orbit: 790 x 888 km, 81.2° (Epoch: 14 November)

Event Time Altitude Azimuth Distance (km) Brightness Sun altitude
Rises 18:19:59 0° 348° (NNW) 3,321 7.5 -18.8°
Reaches altitude 10° 18:22:22 10° 350° (N) 2,396 6.7 -19.2°
Maximum altitude 18:27:47 75° 77° (ENE) 851 4.0 -20.1°
Enters shadow 18:32:44 13° 162° (SSE) 2,226 6.1 -20.8°
